Temp
62 62 62 62 62 61 61 62 62 62 61 62 62 62 63 63 62 61 58 64 65 66 67 67 68 67 68 65 65 63 51 48 52 54 57 63 61 63 65 62 63 63 62 64 64
62 61 62 62 61 61 61 60 61 61 61 61 62 62 62 62 58 57 66 67 68 68 65 62 60 63 60 62 62 56 49 52 58 58 58 61 61 63 62 61 60 59 61 63 64
61 61 61 61 61 61 61 60 60 60 61 61 61 62 62 60 54 56 69 66 66 67 66 65 62 60 56 60 59 56 51 56 58 61 62 61 61 63 60 58 62 60 59 62 62
61 60 60 60 61 61 61 60 60 60 60 60 61 61 61 57 41 59 66 67 66 65 64 60 59 53 52 53 60 53 58 57 59 60 59 60 62 61 61 64 65 64 64 62 62
60 60 59 60 60 61 60 60 60 60 60 60 60 61 55 49 50 63 64 66 66 63 60 57 54 54 51 55 58 55 56 59 60 59 59 60 59 60 61 63 62 62 62 62 63
59 59 59 60 60 60 60 60 60 60 60 60 60 60 49 42 60 61 62 61 63 62 59 59 56 58 55 55 55 58 57 57 59 58 60 58 59 60 61 60 59 60 60 63 63
59 59 59 59 59 60 60 60 59 59 59 60 60 55 47 46 58 59 62 60 61 61 58 61 60 56 55 53 58 57 53 54 55 56 58 59 55 57 60 59 57 58 59 62 62
59 58 59 59 59 59 59 59 59 58 59 60 60 50 42 57 57 59 61 61 62 63 62 60 61 57 54 54 54 52 53 45 52 55 57 59 50 59 58 58 56 57 58 58 59
58 58 58 58 59 58 59 58 57 58 59 59 48 46 41 59 52 57 59 57 59 60 61 62 58 53 52 48 45 48 42 45 48 53 53 55 52 56 57 57 56 56 57 58 59
57 58 58 58 58 58 58 58 57 54 53 54 51 40 46 45 51 54 58 58 56 55 54 53 52 49 48 46 39 41 43 47 44 50 50 50 52 55 55 56 55 55 56 57 58
57 58 58 57 58 58 52 45 40 38 41 39 40 41 45 50 52 51 56 55 54 52 46 50 45 43 46 49 50 49 46 46 48 50 50 49 51 55 55 54 53 54 55 56 58
57 58 58 57 58 57 48 40 41 42 35 42 43 44 47 48 43 48 55 49 48 44 48 46 43 51 52 50 48 48 46 44 47 49 49 48 50 54 53 53 54 55 54 56 55
57 57 57 57 57 49 43 43 47 45 34 37 41 41 44 46 40 43 50 51 46 43 45 43 46 52 51 47 45 46 44 45 45 47 48 48 46 50 54 55 54 56 56 56 55
57 57 57 56 49 44 42 47 47 45 18 29 35 40 44 45 39 48 51 49 46 42 45 46 49 47 46 45 48 42 49 48 45 44 40 46 37 45 51 52 52 53 54 54 53
57 56 56 56 45 42 45 46 44 40 6 34 36 47 44 39 41 42 50 49 41 42 42 40 43 43 43 46 50 45 50 49 46 43 43 41 39 42 48 47 49 50 50 50 51
56 56 55 49 45 44 46 43 40 18 5 28 38 40 39 39 39 42 43 47 48 42 42 42 47 48 48 48 50 49 45 43 42 41 34 41 41 38 42 47 49 48 48 49 49
54 53 50 48 42 46 43 37 19 8 26 22 29 38 36 35 35 36 36 39 36 32 33 38 41 46 50 44 48 46 43 31 30 31 32 36 39 42 45 48 50 48 48 48 49
54 52 47 45 45 45 40 26 7 9 10 32 34 34 30 33 35 37 32 31 40 38 35 33 32 42 47 46 43 43 43 34 28 28 29 35 34 42 46 48 50 50 49 50 49
52 43 42 43 44 42 32 13 13 13 27 31 33 21 28 30 30 34 33 30 38 40 34 33 34 43 46 48 48 40 38 42 33 27 30 34 38 45 44 44 47 48 48 47 49
44 41 39 42 42 38 25 21 15 28 35 32 17 22 12 21 30 30 31 34 35 42 44 38 32 41 43 47 45 44 45 34 33 24 22 30 31 34 37 42 44 45 47 47 48
37 30 39 40 40 31 15 12 20 32 36 31 26 23 28 23 30 29 29 35 39 39 45 41 36 35 41 38 37 39 36 37 37 33 27 26 32 40 41 44 45 47 48 47 47
33 23 39 40 25 13 12 19 32 29 36 34 34 32 29 26 29 31 28 34 41 42 38 41 36 32 32 39 41 42 38 39 32 30 30 31 33 44 43 45 48 48 47 47 47
23 29 38 38 15 10 15 22 27 27 33 33 32 34 33 31 27 28 32 39 41 42 39 40 34 29 30 36 40 38 40 40 38 35 30 30 34 44 44 45 47 47 47 47 46
27 21 25 28 25 22 14 18 22 34 33 35 33 34 32 30 32 30 32 40 41 42 45 45 34 31 27 32 37 34 38 40 38 31 31 33 38 41 41 43 43 44 46 46 46
26 18 19 17 23 29 30 29 28 28 33 34 31 31 30 25 28 29 34 38 40 43 41 40 28 30 31 34 37 37 37 38 36 37 34 38 36 42 42 42 44 45 45 45 45
26 23 26 21 25 27 28 25 29 31 30 30 29 30 31 27 27 29 34 37 37 41 38 37 31 32 30 33 37 34 37 38 37 37 35 37 38 44 44 43 42 43 45 46 45
30 30 27 21 26 20 24 28 29 31 34 33 31 30 29 29 32 33 34 39 40 39 34 34 32 28 26 28 34 30 34 36 36 37 38 35 41 42 41 42 42 43 46 47 47
MSLP
1019.13 1019.19 1019.21 1019.20 1019.14 1019.18 1019.10 1019.08 1019.06 1018.90 1018.82 1018.68 1018.46 1018.21 1017.88 1017.84 1017.34 1017.25 1016.48 1016.24 1016.34 1016.12 1016.27 1015.86 1015.89 1015.76 1016.02 1016.52 1016.84 1017.47 1017.76 1017.40 1016.60 1016.18 1015.85 1015.55 1015.56 1015.66 1015.85 1016.23 1016.75 1017.18 1017.43 1017.55 1018.38
1018.81 1018.93 1018.92 1018.93 1018.98 1019.02 1018.98 1018.98 1018.96 1018.90 1018.73 1018.55 1018.31 1018.14 1017.75 1017.44 1017.40 1016.96 1015.50 1015.90 1015.90 1016.10 1015.97 1015.90 1016.01 1016.17 1016.65 1016.76 1016.94 1017.71 1017.78 1017.06 1016.41 1016.21 1015.86 1015.32 1015.58 1015.55 1015.97 1016.27 1016.90 1017.35 1017.83 1017.93 1018.57
1018.46 1018.59 1018.70 1018.64 1018.71 1018.82 1018.82 1018.87 1018.89 1018.82 1018.75 1018.51 1018.23 1017.96 1017.75 1017.49 1017.11 1015.50 1014.77 1015.41 1015.82 1016.05 1015.98 1016.15 1016.67 1016.69 1017.33 1017.18 1017.03 1017.33 1017.34 1016.78 1016.54 1016.22 1015.98 1015.68 1015.65 1015.61 1015.80 1016.21 1016.16 1016.60 1017.63 1018.05 1018.60
1018.09 1018.27 1018.34 1018.48 1018.46 1018.56 1018.64 1018.76 1018.73 1018.68 1018.63 1018.52 1018.22 1017.87 1017.68 1017.54 1016.92 1015.36 1015.30 1015.18 1015.51 1016.09 1016.03 1016.15 1016.72 1017.05 1017.07 1016.87 1016.80 1017.14 1016.94 1016.76 1016.44 1016.32 1016.26 1016.00 1015.80 1015.71 1015.81 1015.49 1015.67 1015.95 1016.97 1017.84 1018.45
1017.70 1017.85 1017.80 1018.05 1018.16 1018.23 1018.42 1018.47 1018.58 1018.52 1018.48 1018.40 1018.18 1017.88 1017.59 1017.46 1016.47 1015.31 1014.88 1014.83 1015.54 1015.82 1015.77 1016.01 1016.42 1016.73 1016.85 1016.61 1016.95 1016.88 1016.85 1016.60 1016.22 1016.36 1016.20 1016.10 1015.82 1015.78 1015.56 1015.46 1015.85 1016.39 1017.32 1017.86 1018.44
1017.16 1017.38 1017.46 1017.63 1017.84 1017.99 1018.12 1018.24 1018.32 1018.44 1018.33 1018.24 1018.05 1017.75 1017.68 1017.09 1015.80 1015.55 1015.19 1014.92 1015.31 1015.25 1015.67 1015.80 1016.16 1016.38 1016.48 1016.18 1016.50 1016.58 1016.61 1016.59 1016.24 1016.11 1016.14 1016.02 1015.76 1015.71 1015.59 1015.85 1016.58 1016.92 1017.52 1018.03 1018.41
1016.62 1016.91 1017.03 1017.28 1017.59 1017.79 1017.98 1018.06 1018.17 1018.32 1018.24 1018.10 1017.94 1017.86 1017.49 1016.50 1015.85 1015.66 1015.21 1015.21 1015.17 1015.19 1015.58 1015.77 1015.92 1016.16 1016.11 1016.28 1016.66 1016.45 1016.90 1016.77 1016.30 1016.06 1015.87 1015.75 1015.94 1015.73 1015.79 1016.25 1016.81 1017.38 1017.72 1018.18 1018.59
1016.15 1016.54 1016.66 1017.04 1017.43 1017.66 1017.89 1018.00 1018.05 1018.13 1018.07 1017.86 1017.71 1017.82 1017.21 1015.92 1015.85 1015.65 1015.30 1015.13 1015.33 1015.42 1015.33 1015.50 1015.81 1016.13 1016.09 1016.47 1016.42 1016.68 1016.92 1016.88 1016.35 1016.08 1015.73 1015.88 1015.94 1015.73 1016.03 1016.56 1016.99 1017.57 1017.89 1018.37 1018.79
1015.72 1016.20 1016.39 1016.79 1017.09 1017.46 1017.75 1017.91 1017.98 1017.91 1017.74 1017.65 1017.79 1017.70 1016.88 1015.83 1015.94 1015.73 1015.56 1015.50 1015.38 1015.47 1015.44 1015.62 1015.92 1016.02 1016.34 1016.13 1016.58 1016.55 1016.41 1016.76 1016.85 1016.38 1016.21 1016.18 1016.06 1016.04 1016.33 1016.84 1017.29 1017.74 1017.99 1018.44 1018.91
1015.28 1015.85 1016.17 1016.56 1017.10 1017.46 1017.75 1017.87 1017.89 1017.88 1017.78 1017.73 1017.80 1018.11 1016.81 1016.50 1016.29 1016.03 1015.61 1015.55 1015.45 1015.48 1015.73 1015.70 1015.95 1015.85 1015.86 1015.65 1015.46 1015.77 1016.55 1016.70 1016.87 1016.76 1016.59 1016.53 1016.20 1016.15 1016.72 1017.24 1017.42 1017.80 1018.22 1018.48 1018.89
1015.03 1015.51 1015.96 1016.53 1017.22 1017.54 1018.03 1018.19 1018.66 1018.58 1018.23 1017.98 1017.76 1017.62 1017.24 1016.81 1016.44 1015.94 1015.64 1015.46 1015.72 1015.59 1014.98 1015.46 1015.27 1014.36 1014.81 1015.50 1015.47 1015.62 1016.32 1016.74 1016.88 1016.68 1016.57 1016.53 1016.32 1016.17 1016.73 1017.34 1017.54 1017.89 1018.27 1018.76 1019.06
1014.87 1015.29 1015.86 1016.59 1017.06 1017.61 1018.08 1018.49 1018.46 1018.68 1018.43 1018.04 1017.91 1017.82 1017.46 1017.19 1016.80 1015.97 1015.74 1015.70 1015.63 1015.29 1015.39 1015.68 1014.23 1014.43 1014.79 1015.45 1015.86 1015.84 1016.13 1016.58 1017.18 1016.85 1016.74 1016.77 1016.50 1016.31 1016.55 1016.83 1017.11 1017.63 1018.23 1018.80 1019.34
1014.72 1015.30 1015.96 1016.76 1017.27 1018.00 1018.36 1018.37 1018.32 1018.37 1018.88 1018.48 1018.18 1017.93 1017.51 1017.31 1016.95 1016.16 1015.91 1015.62 1015.70 1015.56 1014.83 1014.76 1014.41 1014.41 1014.70 1015.18 1015.50 1015.74 1015.93 1016.13 1017.15 1017.24 1017.03 1017.02 1016.92 1016.49 1016.31 1016.54 1017.02 1017.44 1018.06 1018.70 1019.37
1014.87 1015.53 1016.25 1016.94 1017.76 1018.36 1018.51 1018.35 1018.42 1018.52 1019.67 1019.16 1018.52 1017.91 1017.56 1017.27 1016.91 1016.17 1015.76 1015.66 1015.99 1015.66 1015.12 1014.84 1014.56 1014.47 1014.36 1014.70 1015.16 1015.57 1015.59 1016.33 1016.87 1017.21 1017.32 1017.22 1016.95 1016.43 1016.37 1016.66 1017.19 1017.62 1017.97 1018.77 1019.58
1015.45 1016.09 1016.79 1017.18 1018.02 1018.64 1018.89 1018.57 1018.59 1018.86 1019.97 1019.60 1018.55 1017.83 1017.66 1017.76 1017.44 1016.47 1015.95 1015.67 1015.72 1015.54 1016.03 1015.22 1014.69 1014.94 1014.55 1014.38 1015.03 1015.52 1015.57 1016.24 1016.94 1017.23 1017.39 1017.80 1017.78 1016.32 1016.58 1017.10 1017.50 1017.90 1018.44 1019.07 1019.98
1016.13 1016.68 1017.16 1017.82 1018.52 1019.06 1018.92 1018.84 1019.29 1020.96 1021.02 1020.09 1018.93 1018.28 1018.18 1017.84 1017.72 1017.03 1016.55 1016.47 1016.26 1017.09 1016.69 1015.99 1015.60 1014.94 1014.35 1014.65 1014.82 1015.36 1016.07 1017.10 1017.51 1017.74 1017.62 1017.30 1017.51 1016.84 1016.71 1016.82 1017.60 1018.35 1019.02 1019.54 1020.50
1017.14 1017.48 1017.78 1018.29 1019.19 1019.08 1019.23 1019.92 1021.47 1022.48 1022.26 1021.21 1019.95 1019.17 1018.87 1018.44 1018.26 1017.76 1017.24 1016.78 1016.48 1016.91 1016.52 1016.43 1015.57 1014.52 1014.00 1014.89 1015.36 1015.15 1016.13 1017.82 1018.30 1018.28 1018.08 1018.01 1017.89 1017.00 1016.78 1016.86 1017.06 1018.20 1019.32 1019.93 1020.70
1017.63 1017.80 1019.09 1019.56 1019.56 1019.32 1019.80 1021.40 1023.29 1023.74 1023.11 1021.72 1020.86 1020.15 1019.91 1019.04 1018.39 1018.16 1017.73 1017.32 1016.94 1016.88 1016.75 1016.24 1015.89 1014.75 1013.99 1013.92 1014.20 1015.32 1015.59 1016.74 1017.30 1018.22 1018.77 1018.59 1017.84 1017.20 1017.33 1017.27 1017.38 1018.37 1019.63 1020.67 1021.27
1017.98 1018.80 1019.56 1020.02 1019.70 1019.55 1020.84 1022.83 1023.76 1023.74 1022.88 1021.88 1020.90 1020.56 1020.38 1019.83 1019.23 1018.38 1017.98 1017.34 1016.75 1016.59 1016.90 1016.10 1015.70 1014.84 1014.42 1014.12 1014.49 1015.69 1015.87 1016.78 1017.54 1018.83 1018.91 1018.71 1018.27 1017.85 1018.14 1018.27 1018.13 1018.55 1019.41 1020.60 1022.22
1018.95 1019.68 1020.58 1020.35 1019.95 1020.33 1022.02 1023.82 1023.98 1023.10 1022.21 1021.91 1021.69 1020.90 1020.87 1020.12 1019.57 1018.82 1017.75 1016.50 1016.07 1015.68 1015.72 1016.03 1015.77 1015.29 1014.82 1014.84 1015.08 1015.44 1016.50 1017.45 1017.80 1018.74 1018.92 1018.78 1018.34 1017.71 1018.21 1018.37 1018.42 1018.91 1019.46 1020.84 1022.14
1019.85 1020.73 1020.94 1020.56 1020.33 1021.75 1023.82 1024.59 1023.70 1022.71 1022.12 1021.73 1021.35 1020.87 1020.42 1020.05 1019.39 1018.66 1017.28 1015.99 1015.34 1015.31 1015.83 1016.15 1016.34 1016.12 1015.67 1015.53 1015.43 1016.24 1016.45 1017.25 1017.62 1018.20 1018.39 1018.73 1017.82 1017.34 1017.70 1017.98 1018.37 1018.93 1019.88 1020.93 1021.78
1020.98 1022.02 1021.22 1020.87 1022.20 1024.26 1024.76 1024.16 1023.26 1022.36 1021.76 1021.10 1020.73 1020.34 1019.93 1019.61 1019.10 1018.16 1017.05 1015.54 1014.63 1014.65 1015.21 1016.03 1016.46 1016.42 1016.45 1016.10 1016.04 1015.56 1016.17 1016.49 1016.93 1018.38 1018.49 1018.02 1017.60 1017.17 1017.42 1017.88 1018.32 1019.09 1020.03 1020.98 1021.75
1022.00 1022.37 1021.72 1021.67 1023.33 1024.73 1024.48 1023.88 1022.86 1021.91 1021.06 1020.38 1019.84 1019.47 1019.13 1018.94 1018.68 1017.40 1016.00 1015.03 1014.50 1014.39 1014.68 1015.66 1016.39 1016.73 1017.02 1016.81 1016.32 1016.02 1016.23 1016.53 1017.05 1017.51 1018.49 1018.32 1017.51 1017.11 1017.28 1017.90 1018.31 1018.78 1019.58 1020.48 1021.49
1022.61 1023.43 1023.18 1023.13 1023.58 1023.85 1024.37 1023.39 1022.21 1020.93 1020.35 1019.95 1019.62 1019.34 1019.11 1018.59 1018.09 1017.27 1016.01 1015.11 1014.66 1014.39 1014.79 1014.84 1016.48 1017.06 1017.05 1016.53 1016.26 1016.36 1016.52 1016.72 1016.71 1017.65 1018.29 1018.11 1017.21 1017.25 1017.30 1017.66 1018.26 1018.85 1019.58 1020.24 1021.05
1022.99 1024.29 1024.48 1024.23 1023.90 1023.68 1023.33 1022.47 1021.51 1020.61 1020.05 1019.68 1019.33 1019.04 1018.90 1018.34 1017.45 1016.83 1016.08 1015.29 1015.21 1014.58 1015.26 1015.43 1016.83 1017.82 1017.63 1017.11 1016.66 1016.71 1016.83 1016.99 1017.27 1017.48 1017.83 1017.38 1017.29 1016.81 1017.16 1017.36 1017.96 1018.47 1019.35 1020.23 1021.09
1022.83 1024.00 1024.69 1024.48 1024.04 1023.63 1022.79 1021.82 1020.86 1020.04 1019.84 1019.30 1019.39 1018.86 1018.52 1018.11 1017.80 1016.40 1015.64 1015.00 1014.41 1015.37 1015.90 1016.22 1017.54 1017.85 1018.86 1018.15 1017.52 1017.60 1017.47 1017.41 1017.71 1017.90 1017.96 1017.42 1017.22 1016.83 1017.15 1017.48 1018.49 1019.06 1019.52 1020.37 1021.11
1022.64 1023.14 1023.53 1024.32 1024.14 1023.81 1022.37 1021.56 1020.43 1020.30 1019.42 1019.46 1019.30 1018.57 1018.23 1018.16 1017.85 1017.14 1016.36 1014.91 1013.94 1014.57 1015.82 1016.11 1017.18 1018.43 1019.69 1019.14 1018.31 1018.47 1017.24 1017.30 1017.53 1017.46 1017.42 1017.26 1016.75 1016.97 1017.51 1017.87 1018.20 1018.95 1019.42 1020.08 1020.90
Wind_Speed
12 12 10 9 8 9 9 6 7 7 7 9 10 11 11 10 8 3 6 3 4 6 5 1 3 3 3 3 3 3 2 3 1 1 1 1 1 1 0 6 1 2 4 3 17
13 13 12 10 9 8 8 7 4 7 7 8 10 10 11 12 3 9 5 6 9 7 1 3 3 3 1 3 4 3 2 5 1 1 3 4 1 6 3 3 2 2 4 15 18
14 13 12 12 10 9 7 5 3 5 6 7 9 11 10 8 4 5 11 10 7 9 4 3 6 5 4 4 4 4 4 1 1 2 4 3 4 4 6 4 6 7 13 13 18
15 14 13 12 11 9 7 5 3 5 5 6 7 10 12 2 6 1 7 15 17 8 5 4 5 7 5 9 5 2 6 3 2 2 5 4 5 2 6 3 3 9 19 15 18
15 14 14 13 12 9 8 5 5 4 5 6 7 9 5 3 6 6 13 7 13 7 7 8 6 5 9 11 6 6 4 3 6 2 6 4 4 5 6 3 5 15 18 16 18
14 13 12 12 12 10 6 6 5 4 6 7 7 10 2 8 2 8 5 4 6 8 6 7 7 5 4 7 10 7 8 3 5 3 4 3 4 2 1 5 9 15 15 14 17
13 11 12 11 12 10 5 5 2 5 6 7 7 2 2 9 3 6 3 1 3 6 6 4 5 6 7 6 6 5 4 2 4 2 4 5 3 5 2 4 9 10 12 14 13
13 11 10 11 12 9 5 3 2 5 7 7 8 2 5 3 3 6 2 2 0 5 2 6 3 3 0 4 4 4 2 3 2 3 2 4 7 2 4 7 9 8 8 8 6
13 10 9 11 11 9 5 2 1 6 7 6 1 3 6 5 0 3 2 3 4 2 2 6 5 4 3 7 4 6 4 5 2 1 1 4 5 2 2 5 6 6 8 8 6
12 10 11 12 9 7 4 1 3 4 3 0 0 1 2 3 3 4 3 3 4 7 5 6 5 5 3 4 9 7 10 5 6 5 3 4 6 0 3 4 6 6 6 7 8
11 10 12 13 11 9 4 3 5 4 2 4 3 2 2 7 2 2 3 3 2 5 5 4 5 12 20 10 7 8 8 10 4 3 5 7 5 5 5 4 6 7 7 6 7
9 12 15 15 14 10 4 3 2 2 4 2 5 4 3 2 3 3 1 4 4 7 7 6 15 10 5 11 10 6 13 7 2 2 4 4 7 6 5 5 7 8 7 7 5
9 13 15 14 15 5 3 2 1 2 2 3 2 2 4 2 3 4 3 3 2 5 16 15 1 11 14 12 13 10 8 6 5 4 2 5 6 4 4 3 5 5 6 5 8
13 16 17 17 6 2 1 1 2 3 6 5 3 3 2 2 4 4 5 1 2 3 7 9 6 11 6 10 10 14 8 6 8 9 6 1 4 5 5 6 4 6 8 7 7
18 20 17 4 5 2 2 2 1 6 5 5 2 2 2 0 5 3 4 4 6 3 7 1 8 8 10 8 11 4 9 11 9 9 6 3 2 4 5 5 5 5 5 7 7
20 17 14 5 3 2 2 3 5 10 6 4 2 3 1 2 4 5 3 2 3 6 5 3 4 9 10 6 11 8 9 6 4 2 6 12 11 5 6 6 4 3 6 9 10
19 18 7 2 2 2 3 5 7 6 5 6 3 4 3 2 1 2 2 6 5 3 2 2 4 3 13 10 11 5 10 1 2 4 2 5 8 4 2 2 7 10 9 9 10
18 17 10 4 3 1 3 7 6 3 5 4 2 2 3 1 3 2 2 4 4 7 2 5 3 5 3 5 7 9 6 5 6 5 3 4 6 3 3 4 11 11 10 8 8
8 3 4 6 5 2 7 5 8 7 4 2 6 1 2 4 3 4 5 4 7 8 5 4 3 2 1 4 10 3 5 2 6 3 3 3 3 1 2 5 11 15 14 10 4
3 3 3 9 6 5 6 4 4 4 1 2 2 4 4 3 4 5 7 6 7 9 8 2 1 2 0 6 7 5 6 4 3 4 2 2 4 4 6 8 8 10 14 12 8
5 5 4 6 3 6 4 7 5 5 4 4 4 3 6 3 7 3 5 5 8 10 13 5 2 1 6 0 6 7 5 4 4 1 4 4 5 3 8 11 14 13 12 13 11
3 3 4 3 5 2 3 6 4 5 6 8 6 9 7 6 6 8 7 7 10 10 12 3 2 2 2 1 4 3 6 4 4 4 1 1 3 1 3 9 12 14 14 13 11
3 1 3 3 2 3 5 5 4 5 7 6 7 9 5 5 6 8 8 6 6 12 17 9 3 3 3 2 4 4 4 4 4 4 1 2 4 2 2 6 13 15 15 13 10
4 2 5 4 1 5 1 5 4 6 8 6 4 2 3 5 8 6 7 6 7 5 8 7 3 2 3 2 4 6 5 3 4 4 4 3 3 6 5 8 7 7 10 13 14
3 3 4 3 3 1 1 3 3 4 6 4 3 6 4 6 8 13 7 6 6 9 2 5 5 4 3 2 3 7 13 6 4 6 5 7 7 4 5 7 8 10 12 14 14
4 4 1 1 2 1 3 4 4 4 4 1 1 9 6 3 4 2 4 8 7 12 7 0 5 6 2 6 9 3 7 4 4 3 3 4 4 4 4 7 6 8 12 13 13
1 2 4 2 1 3 4 3 5 3 1 4 6 6 3 5 8 8 8 5 7 11 7 4 7 5 2 3 6 3 14 13 4 5 7 6 7 5 4 7 8 10 13 15 12
Wind_Direction
272 269 267 272 284 291 286 289 301 308 317 326 336 339 337 327 319 246 228 216 177 227 259 251 171 85 70 118 106 96 74 231 244 191 44 263 89 124 262 112 94 61 139 133 133
266 267 264 265 273 281 287 280 298 302 303 317 326 331 335 331 257 235 154 204 225 218 176 134 89 72 119 178 111 119 181 220 242 343 322 346 286 168 143 128 145 84 57 132 140
256 261 254 259 259 272 280 272 303 307 302 309 321 324 332 326 292 253 197 188 250 222 177 165 133 104 182 180 171 140 207 199 172 305 343 337 346 173 134 229 199 187 157 147 149
260 254 252 249 250 258 266 270 277 309 313 308 317 321 319 267 213 66 345 214 209 194 148 116 144 148 187 181 165 160 239 233 242 53 353 327 310 261 199 240 347 155 158 156 161
258 252 243 236 244 240 260 256 265 302 307 307 316 318 329 216 251 329 327 223 193 172 173 150 154 160 187 194 143 181 226 215 258 286 284 286 269 243 233 334 81 131 156 165 172
254 252 245 225 231 236 240 256 255 291 304 306 314 318 225 242 324 331 342 141 195 168 180 152 187 192 221 172 181 187 206 218 288 295 261 255 280 133 180 117 116 143 159 170 178
245 244 237 212 218 224 234 253 261 293 301 306 308 308 218 237 337 321 346 39 222 181 175 172 149 202 154 120 162 129 168 210 236 252 229 166 296 232 122 137 135 153 159 170 178
240 243 231 200 211 213 218 220 274 297 296 295 303 247 242 241 296 301 282 283 235 237 187 157 116 103 107 119 83 130 174 172 266 174 275 140 269 286 162 159 157 154 152 157 148
234 235 219 188 195 196 198 193 279 287 292 301 263 176 253 312 124 303 268 247 158 172 144 138 130 155 168 146 137 170 155 171 254 157 128 161 254 322 178 177 169 161 163 156 153
226 222 190 178 191 178 164 166 306 342 325 338 61 44 309 310 330 326 260 234 231 149 141 176 200 143 177 186 182 168 204 191 172 210 151 192 256 338 192 207 181 172 171 157 168
216 206 176 171 168 167 99 35 20 343 29 198 220 240 329 304 261 302 300 143 226 184 181 208 205 198 201 211 214 171 173 189 177 197 148 206 236 244 169 179 188 193 173 169 165
180 178 167 169 156 132 87 114 199 173 319 236 283 305 261 261 312 304 256 188 182 220 175 176 225 206 162 191 218 205 199 171 44 196 143 194 249 248 170 216 198 182 176 176 139
158 163 155 150 127 75 123 192 112 106 94 323 251 296 288 152 246 263 182 167 267 298 199 206 69 163 180 175 177 198 197 167 152 182 81 127 288 202 218 204 173 164 161 175 167
145 135 140 133 77 156 193 163 67 91 68 292 347 339 328 246 274 240 225 191 219 221 256 219 129 167 177 180 178 208 184 207 152 175 192 154 262 232 190 196 179 175 172 165 144
124 123 126 63 125 114 331 118 74 54 40 284 339 271 14 134 317 30 292 49 237 336 354 77 172 186 188 186 175 205 163 179 177 191 139 212 192 257 139 199 198 192 158 131 125
113 115 112 52 60 332 59 47 41 45 263 356 339 26 7 178 320 314 180 249 166 245 260 273 298 212 188 163 170 135 87 48 62 141 222 188 193 228 184 181 150 123 129 121 115
85 66 61 26 103 36 29 41 44 123 304 305 355 353 354 264 313 253 281 189 184 145 201 351 241 268 151 122 155 129 136 119 169 187 207 348 200 210 174 146 167 151 134 122 122
86 81 69 54 347 4 54 50 79 247 237 306 295 286 294 285 235 227 238 205 180 129 206 177 173 218 206 143 163 158 153 166 177 178 133 352 222 214 279 112 112 102 109 108 123
80 24 52 346 339 47 70 61 203 204 198 340 318 307 268 283 202 210 217 225 193 173 194 168 240 302 230 106 153 157 160 108 113 55 109 188 279 326 87 89 126 132 126 108 147
70 60 34 320 346 53 74 228 209 206 214 143 186 171 204 233 221 200 190 209 199 174 126 74 228 342 176 90 24 137 143 81 2 132 220 250 265 236 200 166 140 139 134 134 136
49 48 287 334 32 52 143 228 260 236 226 229 232 254 221 229 211 221 236 276 189 162 176 176 314 294 172 117 168 134 153 89 115 101 146 142 248 193 189 178 165 156 147 147 141
83 33 311 2 54 19 157 194 221 225 213 250 241 248 239 197 241 215 228 233 178 149 171 134 205 176 50 263 263 97 144 143 119 199 264 112 270 257 195 174 166 161 159 164 163
92 253 330 76 131 290 299 278 231 217 222 220 232 215 195 218 234 222 187 227 186 163 164 153 207 127 118 38 19 136 127 112 122 88 273 110 256 217 182 164 177 173 174 172 154
88 18 329 47 183 145 169 256 260 219 246 231 268 262 237 239 213 277 215 189 197 135 139 119 95 7 175 95 130 128 141 136 104 108 145 249 269 220 200 172 156 143 152 149 155
48 243 188 258 288 216 190 258 273 277 220 214 237 222 274 254 220 206 203 170 189 151 81 132 123 100 352 291 101 131 164 155 115 145 137 227 211 195 202 198 175 162 149 149 155
136 143 66 245 278 259 234 258 245 261 206 159 297 297 271 318 289 265 160 181 168 168 181 234 131 113 30 324 138 119 164 162 134 152 284 191 251 187 133 111 119 141 151 161 169
158 48 110 279 204 93 233 247 276 356 250 107 261 262 298 291 278 264 265 270 139 154 153 120 130 129 155 306 105 112 198 183 164 167 173 175 218 158 134 143 161 169 174 178 178